Location: Oriwa
(40.7500°S, 175.3333°E)
Time: 14:13:10
(UTC+00:00)

ALOS - Pass Details

Date: 03 February 2023
Orbit: 679 x 682 km, 98.0° (Epoch: 30 March)

Event Time Altitude Azimuth Distance (km) Brightness Sun altitude
Exits shadow 14:23:45 58° 92° (E) 805 2.6 -27.2°
Maximum altitude 14:23:59 59° 106° (ESE) 799 2.7 -27.2°
Drops below altitude 10° 14:28:36 10° 185° (S) 2,154 5.5 -26.7°
Sets 14:30:54 0° 188° (S) 3,077 6.4 -26.5°
